Regional Weather Roundup
Issued by NWS Wakefield, VA

Home | Current Version | Previous Version | Text Only | Print | Product List | Glossary Off
Versions: 1 2 3 4 5 6 7 8 9 10 11 12 13 14 15 16 17 18 19 20 21 22 23 24 25 26 27 28 29 30 31 32 33 34 35 36 37 38 39 40 41 42 43 44 45 46 47 48 49 50

000
ASUS41 KAKQ 221916
RWRAKQ

REGIONAL WEATHER ROUNDUP
NATIONAL WEATHER SERVICE WAKEFIELD VA
300 PM EDT FRI SEP 22 2017

Note: "fair" indicates few or no clouds below 12,000 feet with no
significant weather and/or obstructions to visibility. * = Denotes
station may not report precipitation (e.g., rain,snow,etc.),
thunder or fog.

VAZ042-051-052>054-056-222000-
NORTHERN VIRGINIA

CITY           SKY/WX    TMP DP  RH WIND       PRES   REMARKS
WASH NATIONAL  CLOUDY    83  66  56 NW10      30.02F
DULLES         CLOUDY    82  63  52 N8        30.03F
FORT BELVOIR   PTSUNNY   82  64  53 NW6       30.02F
QUANTICO       CLOUDY    83  66  56 N7        30.03F
FREDERICKSBRG* PTSUNNY   83  64  51 N8        30.01F
STAFFORD*      MOSUNNY   81  64  55 N8        30.07F
WARRENTON      CLOUDY    85  60  43 N7        30.03F
CULPEPER*      PTSUNNY   84  65  53 N9        30.04S
MANASSAS*      CLOUDY    83  65  54 N10       30.03F
LEESBURG*      MOSUNNY   82  66  57 N9        30.05F
WINCHESTER     CLOUDY    79  63  57 NE6       30.05F
FRONT ROYAL*   CLOUDY    82  61  47 N5        30.05S
LURAY*         MOCLDY    84  61  45 CALM      30.06S
$$

VAZ048-049-060>072-079>083-222000-
CENTRAL AND SOUTH CENTRAL VIRGINIA

CITY           SKY/WX    TMP DP  RH WIND       PRES   REMARKS
RICHMOND       CLOUDY    81  67  62 N8        30.02F
CHESTERFIELD*  NOT AVBL
PETERSBURG*    MOSUNNY   84  62  48 N7        30.03S
HANOVER        CLOUDY    82  66  58 VRB5      30.03F
TAPPAHANNOCK*  CLOUDY    84  55  37 W3        30.02F
QUINTON*       FAIR      79  70  74 N8        30.01F
CHARLOTTSVILLE PTSUNNY   87  64  46 CALM      30.04F
GORDONSVILLE*  PTCLDY    84  66  53 NW3       30.03F
ORANGE*        MOSUNNY   82  64  54 W5        30.03F
LOUISA*        CLOUDY    82  63  51 CALM      30.03F
BUMPASS*       FAIR      80  68  67 CALM      30.03F
FARMVILLE*     PTSUNNY   87  61  42 NE8       30.03F
CREWE*         FAIR      85  65  50 N8        30.03F
FORT PICKETT*  FAIR      85  62  45 NW5       30.04S
CHASE CITY*    FAIR      86  60  42 N6        30.04S
CLARKSVILLE*   FAIR      86  64  48 CALM      30.03F
SOUTH HILL*    MOSUNNY   86  67  52 NE5       30.09S
LAWRENCEVILLE* FAIR      86  62  44 NW3       30.02F
EMPORIA*       MOSUNNY   82  63  51 NW6       30.02F
$$

VAZ088>098-222000-
SOUTHEAST VIRGINIA

CITY           SKY/WX    TMP DP  RH WIND       PRES   REMARKS
NORFOLK        CLOUDY    78  68  71 N8        30.01F
VIRGINIA BEACH CLOUDY    79  66  64 NW7       30.00F
NORFOLK NAVAL  CLOUDY    80  65  59 N7        30.02F
WEST POINT*    CLOUDY    81  64  57 W3        30.03S
SALUDA*        FAIR      78  70  77 CALM      30.01F
NEWPORT NEWS   CLOUDY    78  67  68 NE3       30.02S
LANGLEY AFB    PTSUNNY   77  68  73 N3        30.01F
FORT EUSTIS    CLOUDY    82  69  65 NE6       30.00R
WILLIAMSBURG*  CLOUDY    81  70  69 CALM      30.03S
HR EXEC AP*    FAIR      79  68  69 NE7       30.02S
FRANKLIN*      MOSUNNY   85  66  52 N6        30.01S
US460-WAKEFLD  CLOUDY    83  67  58 N7        30.01F
$$

VAZ020-022-025-037-045-222000-
WEST CENTRAL AND SOUTHWEST VIRGINIA

CITY           SKY/WX    TMP DP  RH WIND       PRES   REMARKS
STAUNTON*      PTSUNNY   82  60  46 NW3       30.09F
WAYNESBORO*    CLOUDY    81  60  49 N5        30.09F
HOT SPRINGS VA CLOUDY    75  51  42 NW5       30.22F HAZE
LYNCHBURG      MOSUNNY   84  61  45 VRB3      30.07F
DANVILLE       SUNNY     86  66  51 NW6       30.04F
SOUTH BOSTON*  FAIR      85  64  47 W3        30.04S
MARTINSVILLE   MOSUNNY   85  63  48 CALM      30.09F
ROANOKE        PTSUNNY   85  61  44 NE3       30.08F
BLACKSBURG     CLOUDY    81  64  57 SW3       30.16F
DUBLIN*        MOSUNNY   81  65  58 N5        30.14F
MARION*        MOSUNNY   84  55  37 CALM      30.16F
HILLSVILLE*    MOSUNNY   78  55  45 CALM      30.15F
RICHLANDS*     FAIR      81  56  43 NW3       30.16F
WISE*          SUNNY     81  54  39 N8        30.18S
ABINGDON*      MOSUNNY   83  62  48 N3        30.12F
$$

MDZ021>025-VAZ099-100-222000-
SOUTHERN MARYLAND AND THE DELMARVA PENINSULA

CITY           SKY/WX    TMP DP  RH WIND       PRES   REMARKS
PATUXENT RIVER CLOUDY    83  64  52 NW12      30.00F
BAY BRIDGE APT CLOUDY    79  68  69 W5        30.00F
LEONARDTOWN    CLOUDY    81  64  57 CALM      30.02F
DOVER          PTSUNNY   79  78  97 NW12      29.97F
GEORGETOWN     CLOUDY    78  62  57 NW9       29.98F
EASTON         CLOUDY    81  66  61 NW7       30.03F
CAMBRIDGE      SUNNY     79  66  65 NW7       30.00F
SALISBURY      CLOUDY    81  63  54 NW14      29.98F
OCEAN CITY     MOSUNNY   79  61  53 N8        29.98F
WALLOPS ISLAND CLOUDY    80  66  62 NW10      29.99F
ACCOMACK*      CLOUDY    80  64  59 N5        30.00F
$$

NCZ012>017-030>032-222000-
NORTH CENTRAL AND EASTERN NORTH CAROLINA

CITY           SKY/WX    TMP DP  RH WIND       PRES   REMARKS
ROANOKE RAPIDS FAIR      86  64  48 NW5       30.02F
RALEIGH        MOSUNNY   87  62  43 VRB3      30.03F
ELIZABETH CITY CLOUDY    86  68  54 N7        29.99F
AHOSKIE*       SUNNY     83  65  54 CALM      30.01F
EDENTON*       CLOUDY    87  68  51 CALM      30.01S
CURRITUCK*     CLOUDY    81  68  65 N10       30.01S
KILL DEVIL HLS CLOUDY    81  66  59 CALM      29.99F
MANTEO         CLOUDY    83  67  59 NW5       30.00F
CAPE HATTERAS  SUNNY     83  71  67 SW7       30.01F
TARBORO*       NOT AVBL
GOLDSBORO      MOSUNNY   87  65  48 N7        30.00F
WASHINGTON     SUNNY     86  64  48 N3        30.01F
GREENVILLE     SUNNY     86  63  45 N3        30.03F
NEW BERN       SUNNY     86  66  51 MISG      30.01F
WILMINGTON     SUNNY     85  69  58 E7        30.01F
$$

VAZ048-222000-
ELSEWHERE

CITY           SKY/WX    TMP DP  RH WIND       PRES   REMARKS
HARRISBURG PA  MOSUNNY   84  58  40 N9        30.02F
BALTIMORE      CLOUDY    81  65  58 NW10      30.00F
ANNAPOLIS      PTSUNNY   82  69  64 NW6       29.99F
ANDREWS AFB    CLOUDY    80  62  54 N9        30.01F
PHILADELPHIA   PTSUNNY   82  55  39 NW13      29.97F
HENDERSON NC   MOSUNNY   84  59  42 CALM      30.04F
GREENSBORO     PTSUNNY   85  64  49 N6        30.06F
ROCKY MOUNT    SUNNY     87  64  46 VRB5      30.02F
$$

VAZ100-222000-
MARINE

STATION/POSITION TIME  TEMP    WIND        PRES    WAVE   SWELL
                       AIR SEA DIR/SP/G            HT/PER HT/PER
                 (UTC) (F)     (DEG/KT/KT) (MB)    (FT/S) (FT/S)
BRANDYWINE LGT   1842   75     340/ 16/ 18 1015.1F
CAPE MAY NJ      1848   75 74  330/ 13/ 18 1014.3F
LEWES DE         1848   75 74  330/ 14/ 16 1014.6F
15NM E FENWICK I 1850   73 71  320/ 12/ 16 1015.1F   7/10   5/10
OCEAN-CITY-INLET 1848   77 74  350/  7/  9 1015.3F
WACHAPREAGUE VA  1848   81 76  280/  3/  7 1015.6F
THOMAS POINT MD  1900   78 76     CALM       N/A
GOOSES REEF MD   1900   78 77  320/  2/  2 1016.6    9
COVE POINT MD    1848   75     350/  4/  5 1016.6F
SOLOMONS ISLAND  1848   80 77  320/  6/  9 1015.6F
BISHOPS HEAD MD  1848   77 78  290/ 11/ 12 1016.0F
PINEY POINT MD   1848          320/ 10/ 11   N/A
POTOMAC MD       1900   78 77   20/  2/  4 1015.2    0
CAMBRIDGE MD     1842   80 77              1016.7F
LEWISETTA VA     1848   80 77  340/  7/  9 1016.0F
RAPPAHANNOCK LGT 1848          320/  7/  8 1016.7F
STINGRAY PT      1900   77 76   CALM  /  2 1016.6    1/ 3
YORK RVR RNG VA  1848   76      20/  5/  5 1016.8F
YORKTOWN VA      1848   77 76  160/  2/  4 1016.1F
JAMESTOWN VA     1900      78   30/  4/  6   N/A     0
DOMINION TERM VA 1848   78      50/  5/ 12 1016.6S
KIPTOPEKE VA     1848      75  330/  9/ 10   N/A
CHES BAY BRIDGE  1848   75 76  310/  7/  8 1015.8F
CAPE HENRY VA    1848   76     280/  8/  9   N/A
WILLOUBY STN VA  1848   76      10/  7/  9 1016.2F
S CRANEY ISL VA  1848   76      30/ 11/ 15 1016.1F
CAPE HENRY BUOY  1900      75                N/A     4/11   3/11
1ST LANDING BUOY 1900   75 76              1015.9    2/ 4
64NM E OF VA BCH 1850   72 71  340/  8/ 10 1016.1F  10/11  10/11
DUCK PIER NC     1848   76 76   30/ 14/ 15 1015.6S
44100 DUCK FRF   1805      75                N/A     6/11   5/11
44056 DUCK FRF   1900      76                N/A     6/12   3/12
OREGON INLET NC  1836   82 78  290/  6/  9 1015.9F
HATTERAS NC      1848   81 78  210/  3/  7 1016.2F
DIAMOND SHLS NC  1850   77 79  230/  4/  6 1016.3F   6/11   7/11
CAPE LOOKOUT NC  1900   82     170/  6/  7 1016.0F
$$



USA.gov is the U.S. government's official web portal to all federal, state and local government web resources and services.